Regional Weather Roundup
Issued by NWS

Home | Current Version | Previous Version | Graphics & Text | Print | Product List | Glossary On
Versions: 1 2 3 4 5 6 7 8 9 10 11 12 13 14 15 16 17 18 19 20 21 22 23 24 25 26 27 28 29 30 31 32 33 34 35 36 37 38 39 40 41 42 43 44 45 46 47 48 49
000
ASUS45 KSLC 280110
RWRUT

UTAH REGIONAL WEATHER ROUNDUP
NATIONAL WEATHER SERVICE SALT LAKE CITY UT
700 PM MDT THU AUG 27 2015

UTZ001>011-023>025-280200-

NORTHERN UTAH

CITY           SKY/WX    TMP DP  RH WIND       PRES   REMARKS
BRIGHAM CITY   MOSUNNY   86  44  22 SW5       30.14S
HILL AFB         N/A     84  48  28 W3        30.18F
LOGAN          SUNNY     82  45  27 E9        30.15F
OGDEN          SUNNY     85  47  26 W3        30.14F
PROVO AIRPORT  MOSUNNY   79  57  47 VRB5      30.17F
SALT LAKE CITY   N/A     86  45  23 NW8       30.13F
VERNAL         PTSUNNY   76  52  43 SW6       30.16F
WENDOVER       MOSUNNY   88  37  16 S12       30.13F
HEBER CITY     SUNNY     81  41  24 N7        30.22F
WEST JORDAN    SUNNY     84  46  26 NW5       30.18S

$$

UTZ012>022-026-027-280200-

SOUTHERN/CENTRAL UTAH

CITY           SKY/WX    TMP DP  RH WIND       PRES   REMARKS
BLANDING       PTCLDY    82  44  26 NE9       30.28S
BRYCE CANYON   PTSUNNY   69  54  58 CALM      30.39R
CEDAR CITY     CLOUDY    79  44  28 NE6       30.23S
DELTA          MOSUNNY   83  43  23 NE13G18   30.17S
HANKSVILLE     MOSUNNY   86  43  22 SW10      30.12S
MILFORD        PTSUNNY   85  43  22 CALM      30.18S
MOAB/CYNLANDS  SUNNY     84  52  33 E8        30.10S
PRICE          PTSUNNY   79  40  24 NW12      30.22F
ST GEORGE      CLEAR     97  48  19 N7        30.02S HX  93
KANAB          PTSUNNY   82  55  39 S7        30.23S

$$

REGIONAL REPORTS     COLORADO/ARIZONA

CITY           SKY/WX    TMP DP  RH WIND       PRES   REMARKS
CRAIG, CO      PTCLDY    73  51  46 SW10      30.21S
GRAND JUNCTION MOCLDY    80  57  45 NE10      30.14R
RIFLE          CLOUDY    68  58  70 SW5       30.22F
MONTROSE       PTCLDY    78  51  38 N5        30.23S
CORTEZ         CLEAR     78  52  40 W6        30.20F
PAGE, AZ       SUNNY     89  47  23 NE5       30.11F
GRAND CANYON   MOSUNNY   78  42  27 W6        30.31S
KINGMAN        CLOUDY    95  51  22 N12       30.05F HX  92
FLAGSTAFF      CLOUDY    63  59  87 CALM      30.36F

$$

REGIONAL REPORTS    NEVADA/IDAHO/WYOMING

CITY           SKY/WX    TMP DP  RH WIND       PRES   REMARKS
LAS VEGAS, NV  MOSUNNY  100  49  17 N3        29.90F HX  97
ELY            PTSUNNY   78  39  24 NE12      30.29S
ELKO           MOSUNNY   88  30  12 W14       30.16F
POCATELLO, ID  MOSUNNY   86  37  17 SW15      30.13F
BURLEY         SUNNY     84  42  22 W8        30.10F
EVANSTON, WY   MOSUNNY   69  38  32 N22G29    30.36F
ROCK SPRINGS   MOCLDY    68  42  38 NE16      30.30R
KEMMERER       CLOUDY    61  37  41 W10       30.36F

$$


USA.gov is the U.S. government's official web portal to all federal, state and local government web resources and services.